Time,TemperatureF,DewpointF,PressureIn,WindDirection,WindDirectionDegrees,WindSpeedMPH,WindSpeedGustMPH,Humidity,HourlyPrecipIn,Conditions,Clouds,dailyrainin,SoftwareType,DateUTC
2013-02-12 00:00:00,30.9,29.0,30.05,WSW,247,0.0,3.0,92,0.00,,,0.02,Rainwise IP-100,2013-02-12 05:00:00,
2013-02-12 00:05:00,30.9,29.0,30.06,WSW,247,6.0,6.0,94,0.00,,,0.00,Rainwise IP-100,2013-02-12 05:05:00,
2013-02-12 00:10:00,31.4,29.0,30.05,WSW,247,0.0,6.0,94,0.00,,,0.00,Rainwise IP-100,2013-02-12 05:10:00,
2013-02-12 00:15:00,31.6,31.0,30.05,WSW,247,4.0,5.0,93,0.00,,,0.00,Rainwise IP-100,2013-02-12 05:15:00,
2013-02-12 00:16:00,31.7,31.0,30.05,WSW,247,4.0,7.0,92,0.00,,,0.00,Rainwise IP-100,2013-02-12 05:16:00,
2013-02-12 00:21:00,31.9,31.0,30.05,WSW,247,0.0,8.0,92,0.00,,,0.00,Rainwise IP-100,2013-02-12 05:21:00,
2013-02-12 00:26:00,31.7,31.0,30.06,WSW,247,2.0,6.0,92,0.00,,,0.00,Rainwise IP-100,2013-02-12 05:26:00,
2013-02-12 00:31:00,31.7,31.0,30.06,WSW,247,3.0,6.0,92,0.00,,,0.00,Rainwise IP-100,2013-02-12 05:31:00,
2013-02-12 00:36:00,31.4,29.0,30.06,SW,225,1.0,4.0,92,0.00,,,0.00,Rainwise IP-100,2013-02-12 05:36:00,
2013-02-12 00:41:00,30.9,29.0,30.05,SW,225,3.0,4.0,93,0.00,,,0.00,Rainwise IP-100,2013-02-12 05:41:00,
2013-02-12 00:46:00,31.1,29.0,30.06,WSW,247,1.0,6.0,94,0.00,,,0.00,Rainwise IP-100,2013-02-12 05:46:00,
2013-02-12 00:51:00,30.9,29.0,30.06,WSW,247,1.0,5.0,94,0.00,,,0.00,Rainwise IP-100,2013-02-12 05:51:00,
2013-02-12 00:56:00,30.8,29.0,30.06,WSW,247,0.0,5.0,94,0.00,,,0.00,Rainwise IP-100,2013-02-12 05:56:00,
2013-02-12 01:01:00,30.3,29.0,30.07,WSW,247,1.0,2.0,94,0.00,,,0.00,Rainwise IP-100,2013-02-12 06:01:00,
2013-02-12 01:06:00,29.9,29.0,30.06,WSW,247,1.0,3.0,95,0.00,,,0.00,Rainwise IP-100,2013-02-12 06:06:00,
2013-02-12 01:11:00,29.8,29.0,30.07,WSW,247,0.0,5.0,97,0.00,,,0.00,Rainwise IP-100,2013-02-12 06:11:00,
2013-02-12 01:16:00,29.9,29.0,30.07,WSW,247,1.0,6.0,97,0.00,,,0.00,Rainwise IP-100,2013-02-12 06:16:00,
2013-02-12 01:21:00,29.9,29.0,30.07,SW,225,3.0,6.0,97,0.00,,,0.00,Rainwise IP-100,2013-02-12 06:21:00,
2013-02-12 01:26:00,29.6,29.0,30.07,West,270,1.0,5.0,97,0.00,,,0.00,Rainwise IP-100,2013-02-12 06:26:00,
2013-02-12 01:31:00,29.8,29.0,30.07,WSW,247,2.0,5.0,97,0.00,,,0.00,Rainwise IP-100,2013-02-12 06:31:00,
2013-02-12 01:36:00,29.9,29.0,30.07,WSW,247,0.0,5.0,97,0.00,,,0.00,Rainwise IP-100,2013-02-12 06:36:00,
2013-02-12 01:41:00,29.6,29.0,30.08,WSW,247,0.0,2.0,97,0.00,,,0.00,Rainwise IP-100,2013-02-12 06:41:00,
2013-02-12 01:46:00,29.4,29.0,30.07,SW,225,0.0,5.0,97,0.00,,,0.00,Rainwise IP-100,2013-02-12 06:46:00,
2013-02-12 01:51:00,29.1,29.0,30.08,SW,225,3.0,5.0,98,0.00,,,0.00,Rainwise IP-100,2013-02-12 06:51:00,
2013-02-12 01:56:00,28.9,29.0,30.08,SE,135,0.0,4.0,98,0.00,,,0.00,Rainwise IP-100,2013-02-12 06:56:00,
2013-02-12 01:58:00,28.9,29.0,30.08,SE,135,0.0,2.0,98,0.00,,,0.00,Rainwise IP-100,2013-02-12 06:58:00,
2013-02-12 01:59:00,28.9,29.0,30.08,SE,135,0.0,2.0,98,0.00,,,0.00,Rainwise IP-100,2013-02-12 06:59:00,
2013-02-12 02:04:00,28.7,29.0,30.08,WSW,247,0.0,3.0,99,0.00,,,0.00,Rainwise IP-100,2013-02-12 07:04:00,
2013-02-12 02:09:00,28.5,29.0,30.08,NW,315,0.0,1.0,99,0.00,,,0.00,Rainwise IP-100,2013-02-12 07:09:00,
2013-02-12 02:14:00,28.1,28.0,30.08,NW,315,0.0,2.0,99,0.00,,,0.00,Rainwise IP-100,2013-02-12 07:14:00,
2013-02-12 02:19:00,27.9,28.0,30.08,NW,315,0.0,0.0,99,0.00,,,0.00,Rainwise IP-100,2013-02-12 07:19:00,
2013-02-12 02:24:00,27.5,28.0,30.08,NW,315,0.0,0.0,99,0.00,,,0.00,Rainwise IP-100,2013-02-12 07:24:00,
2013-02-12 02:29:00,27.4,28.0,30.08,SW,225,0.0,5.0,100,0.00,,,0.00,Rainwise IP-100,2013-02-12 07:29:00,
2013-02-12 02:34:00,27.7,28.0,30.08,West,270,0.0,3.0,100,0.00,,,0.00,Rainwise IP-100,2013-02-12 07:34:00,
2013-02-12 02:39:00,27.7,28.0,30.08,WNW,292,1.0,4.0,100,0.00,,,0.00,Rainwise IP-100,2013-02-12 07:39:00,
2013-02-12 02:44:00,27.8,28.0,30.09,West,270,2.0,6.0,100,0.00,,,0.00,Rainwise IP-100,2013-02-12 07:44:00,
2013-02-12 02:49:00,28.3,28.0,30.09,WSW,247,0.0,6.0,100,0.00,,,0.00,Rainwise IP-100,2013-02-12 07:49:00,
2013-02-12 02:54:00,28.2,28.0,30.09,South,180,0.0,4.0,100,0.00,,,0.00,Rainwise IP-100,2013-02-12 07:54:00,
2013-02-12 02:59:00,28.2,28.0,30.09,SSW,202,0.0,5.0,100,0.00,,,0.00,Rainwise IP-100,2013-02-12 07:59:00,
2013-02-12 03:04:00,27.9,28.0,30.09,SW,225,1.0,5.0,100,0.00,,,0.00,Rainwise IP-100,2013-02-12 08:04:00,
2013-02-12 03:09:00,27.9,28.0,30.09,North,360,0.0,4.0,100,0.00,,,0.00,Rainwise IP-100,2013-02-12 08:09:00,
2013-02-12 03:14:00,27.9,28.0,30.09,WSW,247,0.0,4.0,100,0.00,,,0.00,Rainwise IP-100,2013-02-12 08:14:00,
2013-02-12 03:19:00,28.2,28.0,30.09,NW,315,1.0,8.0,100,0.00,,,0.00,Rainwise IP-100,2013-02-12 08:19:00,
2013-02-12 03:24:00,28.1,28.0,30.08,WNW,292,2.0,4.0,100,0.00,,,0.00,Rainwise IP-100,2013-02-12 08:24:00,
2013-02-12 03:29:00,28.3,28.0,30.09,North,360,1.0,6.0,100,0.00,,,0.00,Rainwise IP-100,2013-02-12 08:29:00,
2013-02-12 03:34:00,28.1,28.0,30.08,North,360,0.0,2.0,100,0.00,,,0.00,Rainwise IP-100,2013-02-12 08:34:00,
2013-02-12 03:39:00,27.9,28.0,30.08,NW,315,0.0,4.0,100,0.00,,,0.00,Rainwise IP-100,2013-02-12 08:39:00,
2013-02-12 03:44:00,27.5,28.0,30.09,NW,315,0.0,0.0,100,0.00,,,0.00,Rainwise IP-100,2013-02-12 08:44:00,
2013-02-12 03:49:00,27.0,28.0,30.08,NW,315,0.0,0.0,100,0.00,,,0.00,Rainwise IP-100,2013-02-12 08:49:00,
2013-02-12 03:54:00,26.8,28.0,30.09,NW,315,0.0,1.0,100,0.00,,,0.00,Rainwise IP-100,2013-02-12 08:54:00,
2013-02-12 03:59:00,26.4,26.0,30.09,NW,315,0.0,0.0,100,0.00,,,0.00,Rainwise IP-100,2013-02-12 08:59:00,
2013-02-12 04:04:00,26.1,26.0,30.09,NW,315,0.0,0.0,100,0.00,,,0.00,Rainwise IP-100,2013-02-12 09:04:00,
2013-02-12 04:09:00,25.8,26.0,30.09,NW,315,0.0,0.0,100,0.00,,,0.00,Rainwise IP-100,2013-02-12 09:09:00,
2013-02-12 04:14:00,25.7,26.0,30.09,NW,315,0.0,0.0,100,0.00,,,0.00,Rainwise IP-100,2013-02-12 09:14:00,
2013-02-12 04:19:00,25.5,26.0,30.09,NW,315,0.0,0.0,100,0.00,,,0.00,Rainwise IP-100,2013-02-12 09:19:00,
2013-02-12 04:24:00,25.3,26.0,30.09,NW,315,0.0,0.0,100,0.00,,,0.00,Rainwise IP-100,2013-02-12 09:24:00,
2013-02-12 04:29:00,25.6,26.0,30.09,WSW,247,1.0,5.0,100,0.00,,,0.00,Rainwise IP-100,2013-02-12 09:29:00,
2013-02-12 04:34:00,25.9,26.0,30.09,WSW,247,1.0,5.0,100,0.00,,,0.00,Rainwise IP-100,2013-02-12 09:34:00,
2013-02-12 04:39:00,25.9,26.0,30.09,WNW,292,0.0,3.0,100,0.00,,,0.00,Rainwise IP-100,2013-02-12 09:39:00,
2013-02-12 04:44:00,25.9,26.0,30.09,WNW,292,0.0,3.0,100,0.00,,,0.00,Rainwise IP-100,2013-02-12 09:44:00,
2013-02-12 04:49:00,25.8,26.0,30.09,WSW,247,0.0,5.0,100,0.00,,,0.00,Rainwise IP-100,2013-02-12 09:49:00,
2013-02-12 04:54:00,25.6,26.0,30.10,NW,315,3.0,3.0,100,0.00,,,0.00,Rainwise IP-100,2013-02-12 09:54:00,
2013-02-12 04:59:00,25.5,26.0,30.09,East,90,0.0,3.0,100,0.00,,,0.00,Rainwise IP-100,2013-02-12 09:59:00,
2013-02-12 05:04:00,25.6,26.0,30.11,NNE,22,3.0,5.0,100,0.00,,,0.00,Rainwise IP-100,2013-02-12 10:04:00,
2013-02-12 05:09:00,26.6,28.0,30.10,WNW,292,0.0,7.0,100,0.00,,,0.00,Rainwise IP-100,2013-02-12 10:09:00,
2013-02-12 05:14:00,26.4,26.0,30.10,WNW,292,0.0,4.0,100,0.00,,,0.00,Rainwise IP-100,2013-02-12 10:14:00,
2013-02-12 05:19:00,26.2,26.0,30.10,NW,315,3.0,7.0,100,0.00,,,0.00,Rainwise IP-100,2013-02-12 10:19:00,
2013-02-12 05:24:00,26.3,26.0,30.10,NW,315,0.0,6.0,100,0.00,,,0.00,Rainwise IP-100,2013-02-12 10:24:00,
2013-02-12 05:29:00,25.9,26.0,30.10,NW,315,0.0,1.0,100,0.00,,,0.00,Rainwise IP-100,2013-02-12 10:29:00,
2013-02-12 05:34:00,25.4,26.0,30.10,NW,315,0.0,1.0,100,0.00,,,0.00,Rainwise IP-100,2013-02-12 10:34:00,
2013-02-12 05:39:00,24.9,26.0,30.10,NW,315,0.0,0.0,100,0.00,,,0.00,Rainwise IP-100,2013-02-12 10:39:00,
2013-02-12 05:44:00,24.3,24.0,30.10,NW,315,0.0,0.0,100,0.00,,,0.00,Rainwise IP-100,2013-02-12 10:44:00,
2013-02-12 05:49:00,23.7,24.0,30.10,NW,315,0.0,0.0,100,0.00,,,0.00,Rainwise IP-100,2013-02-12 10:49:00,
2013-02-12 05:54:00,23.3,23.0,30.10,NW,315,0.0,0.0,100,0.00,,,0.00,Rainwise IP-100,2013-02-12 10:54:00,
2013-02-12 05:59:00,22.9,23.0,30.10,NW,315,0.0,0.0,100,0.00,,,0.00,Rainwise IP-100,2013-02-12 10:59:00,
2013-02-12 06:04:00,23.4,23.0,30.10,WNW,292,1.0,4.0,100,0.00,,,0.00,Rainwise IP-100,2013-02-12 11:04:00,
2013-02-12 06:09:00,23.9,24.0,30.10,WNW,292,0.0,3.0,100,0.00,,,0.00,Rainwise IP-100,2013-02-12 11:09:00,
2013-02-12 06:14:00,23.9,24.0,30.10,WNW,292,0.0,2.0,100,0.00,,,0.00,Rainwise IP-100,2013-02-12 11:14:00,
2013-02-12 06:19:00,23.9,24.0,30.11,WNW,292,0.0,2.0,100,0.00,,,0.00,Rainwise IP-100,2013-02-12 11:19:00,
2013-02-12 06:24:00,23.8,24.0,30.10,WNW,292,0.0,0.0,100,0.00,,,0.00,Rainwise IP-100,2013-02-12 11:24:00,
2013-02-12 06:29:00,23.5,24.0,30.11,West,270,0.0,0.0,100,0.00,,,0.00,Rainwise IP-100,2013-02-12 11:29:00,
2013-02-12 06:34:00,23.3,23.0,30.11,West,270,0.0,0.0,100,0.00,,,0.00,Rainwise IP-100,2013-02-12 11:34:00,
2013-02-12 06:39:00,23.3,23.0,30.10,West,270,0.0,3.0,100,0.00,,,0.00,Rainwise IP-100,2013-02-12 11:39:00,
2013-02-12 06:44:00,23.1,23.0,30.11,West,270,0.0,0.0,100,0.00,,,0.00,Rainwise IP-100,2013-02-12 11:44:00,
2013-02-12 06:49:00,22.8,23.0,30.11,West,270,0.0,0.0,100,0.00,,,0.00,Rainwise IP-100,2013-02-12 11:49:00,
2013-02-12 06:54:00,22.8,23.0,30.10,West,270,0.0,3.0,100,0.00,,,0.00,Rainwise IP-100,2013-02-12 11:54:00,
2013-02-12 06:59:00,22.9,23.0,30.10,West,270,0.0,2.0,100,0.00,,,0.00,Rainwise IP-100,2013-02-12 11:59:00,
2013-02-12 07:04:00,22.9,23.0,30.11,West,270,0.0,1.0,100,0.00,,,0.00,Rainwise IP-100,2013-02-12 12:04:00,
2013-02-12 07:09:00,22.9,23.0,30.11,West,270,0.0,0.0,100,0.00,,,0.00,Rainwise IP-100,2013-02-12 12:09:00,
2013-02-12 07:14:00,22.5,23.0,30.11,West,270,0.0,0.0,100,0.00,,,0.00,Rainwise IP-100,2013-02-12 12:14:00,
2013-02-12 07:19:00,22.4,23.0,30.11,West,270,0.0,0.0,100,0.00,,,0.00,Rainwise IP-100,2013-02-12 12:19:00,
2013-02-12 07:24:00,22.2,23.0,30.11,West,270,0.0,0.0,100,0.00,,,0.00,Rainwise IP-100,2013-02-12 12:24:00,
2013-02-12 07:29:00,22.1,23.0,30.11,West,270,0.0,0.0,100,0.00,,,0.00,Rainwise IP-100,2013-02-12 12:29:00,
2013-02-12 07:34:00,21.9,23.0,30.11,West,270,0.0,0.0,100,0.00,,,0.00,Rainwise IP-100,2013-02-12 12:34:00,
2013-02-12 07:39:00,21.6,23.0,30.11,West,270,0.0,0.0,100,0.00,,,0.00,Rainwise IP-100,2013-02-12 12:39:00,
2013-02-12 07:44:00,21.3,21.0,30.12,West,270,0.0,0.0,100,0.00,,,0.00,Rainwise IP-100,2013-02-12 12:44:00,
2013-02-12 07:49:00,21.2,21.0,30.12,West,270,0.0,0.0,100,0.00,,,0.00,Rainwise IP-100,2013-02-12 12:49:00,
2013-02-12 07:54:00,21.6,23.0,30.12,West,270,0.0,0.0,100,0.00,,,0.00,Rainwise IP-100,2013-02-12 12:54:00,
2013-02-12 07:59:00,21.9,23.0,30.12,West,270,0.0,0.0,100,0.00,,,0.00,Rainwise IP-100,2013-02-12 12:59:00,
2013-02-12 08:04:00,21.8,23.0,30.12,West,270,0.0,1.0,100,0.00,,,0.00,Rainwise IP-100,2013-02-12 13:04:00,
2013-02-12 08:09:00,22.1,23.0,30.12,West,270,0.0,0.0,100,0.00,,,0.00,Rainwise IP-100,2013-02-12 13:09:00,
2013-02-12 08:14:00,22.3,23.0,30.12,West,270,0.0,0.0,100,0.00,,,0.00,Rainwise IP-100,2013-02-12 13:14:00,
2013-02-12 08:19:00,22.4,23.0,30.12,West,270,0.0,0.0,100,0.00,,,0.00,Rainwise IP-100,2013-02-12 13:19:00,
2013-02-12 08:24:00,22.8,23.0,30.12,West,270,0.0,0.0,100,0.00,,,0.00,Rainwise IP-100,2013-02-12 13:24:00,
2013-02-12 08:29:00,23.3,23.0,30.12,West,270,0.0,2.0,100,0.00,,,0.00,Rainwise IP-100,2013-02-12 13:29:00,
2013-02-12 08:34:00,24.0,24.0,30.12,West,270,0.0,4.0,100,0.00,,,0.00,Rainwise IP-100,2013-02-12 13:34:00,
2013-02-12 08:39:00,24.9,26.0,30.12,WSW,247,2.0,6.0,100,0.00,,,0.00,Rainwise IP-100,2013-02-12 13:39:00,
2013-02-12 08:44:00,25.5,26.0,30.13,WSW,247,5.0,5.0,100,0.00,,,0.00,Rainwise IP-100,2013-02-12 13:44:00,
2013-02-12 08:49:00,26.1,26.0,30.13,SW,225,2.0,6.0,100,0.00,,,0.00,Rainwise IP-100,2013-02-12 13:49:00,
2013-02-12 08:54:00,26.5,28.0,30.13,WSW,247,0.0,5.0,100,0.00,,,0.00,Rainwise IP-100,2013-02-12 13:54:00,
2013-02-12 08:59:00,26.7,28.0,30.13,WSW,247,3.0,6.0,100,0.00,,,0.00,Rainwise IP-100,2013-02-12 13:59:00,
2013-02-12 09:04:00,27.1,28.0,30.14,WSW,247,6.0,7.0,100,0.00,,,0.00,Rainwise IP-100,2013-02-12 14:04:00,
2013-02-12 09:09:00,27.7,28.0,30.13,SW,225,5.0,7.0,100,0.00,,,0.00,Rainwise IP-100,2013-02-12 14:09:00,
2013-02-12 09:14:00,27.9,28.0,30.13,WSW,247,7.0,8.0,100,0.00,,,0.00,Rainwise IP-100,2013-02-12 14:14:00,
2013-02-12 09:19:00,28.3,28.0,30.13,SW,225,5.0,7.0,100,0.00,,,0.00,Rainwise IP-100,2013-02-12 14:19:00,
2013-02-12 09:24:00,28.5,29.0,30.13,WSW,247,4.0,7.0,98,0.00,,,0.00,Rainwise IP-100,2013-02-12 14:24:00,
2013-02-12 09:29:00,28.7,29.0,30.12,South,180,0.0,6.0,98,0.00,,,0.00,Rainwise IP-100,2013-02-12 14:29:00,
2013-02-12 09:34:00,29.0,29.0,30.12,WSW,247,1.0,4.0,98,0.00,,,0.00,Rainwise IP-100,2013-02-12 14:34:00,
2013-02-12 09:39:00,29.5,29.0,30.12,NW,315,3.0,5.0,96,0.00,,,0.00,Rainwise IP-100,2013-02-12 14:39:00,
2013-02-12 09:44:00,29.7,29.0,30.11,NE,45,1.0,5.0,96,0.00,,,0.00,Rainwise IP-100,2013-02-12 14:44:00,
2013-02-12 09:49:00,30.3,29.0,30.12,West,270,3.0,4.0,95,0.00,,,0.00,Rainwise IP-100,2013-02-12 14:49:00,
2013-02-12 09:54:00,31.2,29.0,30.12,West,270,0.0,6.0,93,0.00,,,0.00,Rainwise IP-100,2013-02-12 14:54:00,
2013-02-12 09:59:00,31.9,29.0,30.11,NW,315,0.0,4.0,91,0.00,,,0.00,Rainwise IP-100,2013-02-12 14:59:00,
2013-02-12 10:04:00,32.2,29.0,30.11,SW,225,0.0,7.0,88,0.00,,,0.00,Rainwise IP-100,2013-02-12 15:04:00,
2013-02-12 10:09:00,32.5,29.0,30.10,NNE,22,0.0,5.0,86,0.00,,,0.00,Rainwise IP-100,2013-02-12 15:09:00,
2013-02-12 10:14:00,33.2,29.0,30.10,NW,315,2.0,4.0,86,0.00,,,0.00,Rainwise IP-100,2013-02-12 15:14:00,
2013-02-12 10:19:00,33.7,29.0,30.10,North,360,3.0,4.0,82,0.00,,,0.00,Rainwise IP-100,2013-02-12 15:19:00,
2013-02-12 10:24:00,34.1,29.0,30.10,North,360,0.0,5.0,79,0.00,,,0.00,Rainwise IP-100,2013-02-12 15:24:00,
2013-02-12 10:29:00,34.9,29.0,30.10,NNE,22,0.0,0.0,78,0.00,,,0.00,Rainwise IP-100,2013-02-12 15:29:00,
2013-02-12 10:34:00,35.9,31.0,30.09,WSW,247,4.0,4.0,80,0.00,,,0.00,Rainwise IP-100,2013-02-12 15:34:00,
2013-02-12 10:39:00,36.0,29.0,30.11,WSW,247,0.0,6.0,75,0.00,,,0.00,Rainwise IP-100,2013-02-12 15:39:00,
2013-02-12 10:44:00,37.0,29.0,30.11,NW,315,2.0,5.0,74,0.00,,,0.00,Rainwise IP-100,2013-02-12 15:44:00,
2013-02-12 10:49:00,37.5,29.0,30.11,South,180,1.0,4.0,71,0.00,,,0.00,Rainwise IP-100,2013-02-12 15:49:00,
2013-02-12 10:54:00,37.7,29.0,30.11,East,90,0.0,6.0,71,0.00,,,0.00,Rainwise IP-100,2013-02-12 15:54:00,
2013-02-12 10:59:00,38.4,29.0,30.11,WSW,247,2.0,4.0,70,0.00,,,0.00,Rainwise IP-100,2013-02-12 15:59:00,
2013-02-12 11:04:00,38.9,29.0,30.11,South,180,6.0,6.0,68,0.00,,,0.00,Rainwise IP-100,2013-02-12 16:04:00,
2013-02-12 11:09:00,39.5,31.0,30.10,SE,135,0.0,6.0,67,0.00,,,0.00,Rainwise IP-100,2013-02-12 16:09:00,
2013-02-12 11:14:00,40.1,29.0,30.10,NW,315,0.0,5.0,65,0.00,,,0.00,Rainwise IP-100,2013-02-12 16:14:00,
2013-02-12 11:19:00,40.3,29.0,30.10,SSW,202,3.0,5.0,64,0.00,,,0.00,Rainwise IP-100,2013-02-12 16:19:00,
2013-02-12 11:24:00,40.1,29.0,30.11,South,180,4.0,7.0,65,0.00,,,0.00,Rainwise IP-100,2013-02-12 16:24:00,
2013-02-12 11:29:00,40.1,29.0,30.10,NW,315,0.0,6.0,65,0.00,,,0.00,Rainwise IP-100,2013-02-12 16:29:00,
2013-02-12 11:34:00,40.1,29.0,30.10,South,180,4.0,4.0,64,0.00,,,0.00,Rainwise IP-100,2013-02-12 16:34:00,
2013-02-12 11:39:00,40.3,29.0,30.11,SW,225,4.0,8.0,65,0.00,,,0.00,Rainwise IP-100,2013-02-12 16:39:00,
2013-02-12 11:44:00,39.8,29.0,30.10,SE,135,9.0,9.0,62,0.00,,,0.00,Rainwise IP-100,2013-02-12 16:44:00,
2013-02-12 11:49:00,39.8,29.0,30.10,WSW,247,6.0,11.0,65,0.00,,,0.00,Rainwise IP-100,2013-02-12 16:49:00,
2013-02-12 11:54:00,40.3,29.0,30.09,SSW,202,1.0,7.0,65,0.00,,,0.00,Rainwise IP-100,2013-02-12 16:54:00,
2013-02-12 11:59:00,39.6,29.0,30.09,SW,225,2.0,7.0,65,0.00,,,0.00,Rainwise IP-100,2013-02-12 16:59:00,
2013-02-12 12:04:00,40.3,29.0,30.08,North,360,0.0,5.0,63,0.00,,,0.00,Rainwise IP-100,2013-02-12 17:04:00,
2013-02-12 12:09:00,41.4,29.0,30.07,WSW,247,4.0,6.0,61,0.00,,,0.00,Rainwise IP-100,2013-02-12 17:09:00,
2013-02-12 12:14:00,41.7,29.0,30.06,WSW,247,3.0,7.0,60,0.00,,,0.00,Rainwise IP-100,2013-02-12 17:14:00,
2013-02-12 12:19:00,42.5,29.0,30.05,SSE,157,0.0,5.0,57,0.00,,,0.00,Rainwise IP-100,2013-02-12 17:19:00,
2013-02-12 12:24:00,42.4,28.0,30.05,SW,225,0.0,6.0,56,0.00,,,0.00,Rainwise IP-100,2013-02-12 17:24:00,
2013-02-12 12:29:00,42.9,31.0,30.04,NW,315,3.0,6.0,59,0.00,,,0.00,Rainwise IP-100,2013-02-12 17:29:00,
2013-02-12 12:34:00,43.6,31.0,30.04,WNW,292,0.0,5.0,58,0.00,,,0.00,Rainwise IP-100,2013-02-12 17:34:00,
2013-02-12 12:39:00,43.4,29.0,30.04,WSW,247,3.0,6.0,56,0.00,,,0.00,Rainwise IP-100,2013-02-12 17:39:00,
2013-02-12 12:44:00,42.2,29.0,30.04,SW,225,3.0,8.0,59,0.00,,,0.00,Rainwise IP-100,2013-02-12 17:44:00,
2013-02-12 12:49:00,42.4,29.0,30.03,NW,315,6.0,7.0,59,0.00,,,0.00,Rainwise IP-100,2013-02-12 17:49:00,
2013-02-12 12:54:00,43.1,31.0,30.03,SW,225,6.0,6.0,59,0.00,,,0.00,Rainwise IP-100,2013-02-12 17:54:00,
2013-02-12 12:59:00,42.3,29.0,30.03,West,270,4.0,7.0,59,0.00,,,0.00,Rainwise IP-100,2013-02-12 17:59:00,
2013-02-12 13:04:00,42.9,29.0,30.03,WSW,247,5.0,7.0,58,0.00,,,0.00,Rainwise IP-100,2013-02-12 18:04:00,
2013-02-12 13:09:00,43.2,31.0,30.03,NW,315,0.0,7.0,59,0.00,,,0.00,Rainwise IP-100,2013-02-12 18:09:00,
2013-02-12 13:14:00,44.3,31.0,30.03,SW,225,9.0,9.0,60,0.00,,,0.00,Rainwise IP-100,2013-02-12 18:14:00,
2013-02-12 13:19:00,43.4,31.0,30.03,West,270,2.0,9.0,61,0.00,,,0.00,Rainwise IP-100,2013-02-12 18:19:00,
2013-02-12 13:24:00,43.7,31.0,30.03,SE,135,0.0,7.0,59,0.00,,,0.00,Rainwise IP-100,2013-02-12 18:24:00,
2013-02-12 13:29:00,44.0,31.0,30.03,NNW,337,3.0,7.0,59,0.00,,,0.00,Rainwise IP-100,2013-02-12 18:29:00,
2013-02-12 13:34:00,44.1,31.0,30.03,WNW,292,1.0,7.0,60,0.00,,,0.00,Rainwise IP-100,2013-02-12 18:34:00,
2013-02-12 13:39:00,44.2,31.0,30.03,South,180,1.0,8.0,57,0.00,,,0.00,Rainwise IP-100,2013-02-12 18:39:00,
2013-02-12 13:44:00,43.5,32.0,30.04,SSW,202,5.0,8.0,63,0.00,,,0.00,Rainwise IP-100,2013-02-12 18:44:00,
2013-02-12 13:49:00,43.6,31.0,30.04,West,270,2.0,8.0,59,0.00,,,0.00,Rainwise IP-100,2013-02-12 18:49:00,
2013-02-12 13:54:00,42.6,29.0,30.04,South,180,1.0,9.0,57,0.00,,,0.00,Rainwise IP-100,2013-02-12 18:54:00,
2013-02-12 13:59:00,43.0,31.0,30.04,SW,225,6.0,7.0,60,0.00,,,0.00,Rainwise IP-100,2013-02-12 18:59:00,
2013-02-12 14:04:00,43.8,31.0,30.05,SSW,202,2.0,11.0,60,0.00,,,0.00,Rainwise IP-100,2013-02-12 19:04:00,
2013-02-12 14:09:00,42.8,29.0,30.05,South,180,3.0,7.0,57,0.00,,,0.00,Rainwise IP-100,2013-02-12 19:09:00,
2013-02-12 14:14:00,43.2,29.0,30.04,WSW,247,0.0,7.0,56,0.00,,,0.00,Rainwise IP-100,2013-02-12 19:14:00,
2013-02-12 14:19:00,43.4,29.0,30.03,WSW,247,1.0,7.0,56,0.00,,,0.00,Rainwise IP-100,2013-02-12 19:19:00,
2013-02-12 14:24:00,43.9,31.0,30.03,WSW,247,3.0,7.0,58,0.00,,,0.00,Rainwise IP-100,2013-02-12 19:24:00,
2013-02-12 14:29:00,43.9,31.0,30.03,WSW,247,6.0,7.0,59,0.00,,,0.00,Rainwise IP-100,2013-02-12 19:29:00,
2013-02-12 14:34:00,44.4,31.0,30.02,West,270,2.0,7.0,57,0.00,,,0.00,Rainwise IP-100,2013-02-12 19:34:00,
2013-02-12 14:39:00,45.5,32.0,30.02,SW,225,0.0,5.0,57,0.00,,,0.00,Rainwise IP-100,2013-02-12 19:39:00,
2013-02-12 14:44:00,45.5,31.0,30.03,West,270,0.0,7.0,54,0.00,,,0.00,Rainwise IP-100,2013-02-12 19:44:00,
2013-02-12 14:49:00,46.1,32.0,30.02,South,180,1.0,5.0,57,0.00,,,0.00,Rainwise IP-100,2013-02-12 19:49:00,
2013-02-12 14:54:00,46.8,31.0,30.02,SW,225,5.0,7.0,53,0.00,,,0.00,Rainwise IP-100,2013-02-12 19:54:00,
2013-02-12 14:59:00,46.9,32.0,30.02,SE,135,2.0,7.0,55,0.00,,,0.00,Rainwise IP-100,2013-02-12 19:59:00,
2013-02-12 15:04:00,46.8,31.0,30.02,West,270,2.0,7.0,53,0.00,,,0.00,Rainwise IP-100,2013-02-12 20:04:00,
2013-02-12 15:09:00,46.9,32.0,30.01,NW,315,0.0,4.0,55,0.00,,,0.00,Rainwise IP-100,2013-02-12 20:09:00,
2013-02-12 15:14:00,46.1,29.0,30.01,SW,225,4.0,9.0,53,0.00,,,0.00,Rainwise IP-100,2013-02-12 20:14:00,
2013-02-12 15:19:00,44.9,31.0,30.01,WSW,247,5.0,9.0,58,0.00,,,0.00,Rainwise IP-100,2013-02-12 20:19:00,
2013-02-12 15:24:00,45.4,31.0,30.01,SW,225,4.0,7.0,57,0.00,,,0.00,Rainwise IP-100,2013-02-12 20:24:00,
2013-02-12 15:29:00,45.2,32.0,30.01,South,180,2.0,9.0,59,0.00,,,0.00,Rainwise IP-100,2013-02-12 20:29:00,
2013-02-12 15:34:00,45.6,32.0,30.01,South,180,4.0,9.0,57,0.00,,,0.00,Rainwise IP-100,2013-02-12 20:34:00,
2013-02-12 15:39:00,45.6,32.0,30.01,South,180,1.0,7.0,58,0.00,,,0.00,Rainwise IP-100,2013-02-12 20:39:00,
2013-02-12 15:44:00,45.3,31.0,30.01,WSW,247,1.0,9.0,58,0.00,,,0.00,Rainwise IP-100,2013-02-12 20:44:00,
2013-02-12 15:49:00,46.1,32.0,30.01,West,270,1.0,7.0,58,0.00,,,0.00,Rainwise IP-100,2013-02-12 20:49:00,
2013-02-12 15:54:00,46.3,29.0,30.01,SW,225,2.0,9.0,53,0.00,,,0.00,Rainwise IP-100,2013-02-12 20:54:00,
2013-02-12 15:59:00,46.8,31.0,30.01,South,180,2.0,8.0,53,0.00,,,0.00,Rainwise IP-100,2013-02-12 20:59:00,
2013-02-12 16:04:00,47.2,31.0,30.01,SW,225,0.0,9.0,53,0.00,,,0.00,Rainwise IP-100,2013-02-12 21:04:00,
2013-02-12 16:09:00,47.9,32.0,30.01,WSW,247,6.0,8.0,52,0.00,,,0.00,Rainwise IP-100,2013-02-12 21:09:00,
2013-02-12 16:14:00,47.7,31.0,30.00,South,180,3.0,9.0,52,0.00,,,0.00,Rainwise IP-100,2013-02-12 21:14:00,
2013-02-12 16:19:00,47.8,32.0,30.00,SSW,202,1.0,8.0,52,0.00,,,0.00,Rainwise IP-100,2013-02-12 21:19:00,
2013-02-12 16:24:00,47.7,31.0,30.00,WSW,247,2.0,7.0,52,0.00,,,0.00,Rainwise IP-100,2013-02-12 21:24:00,
2013-02-12 16:29:00,48.0,31.0,30.00,SW,225,0.0,7.0,50,0.00,,,0.00,Rainwise IP-100,2013-02-12 21:29:00,
2013-02-12 16:34:00,48.7,29.0,30.00,West,270,4.0,7.0,46,0.00,,,0.00,Rainwise IP-100,2013-02-12 21:34:00,
2013-02-12 16:39:00,47.7,29.0,29.99,WSW,247,4.0,7.0,47,0.00,,,0.00,Rainwise IP-100,2013-02-12 21:39:00,
2013-02-12 16:44:00,47.4,29.0,30.00,WSW,247,2.0,6.0,49,0.00,,,0.00,Rainwise IP-100,2013-02-12 21:44:00,
2013-02-12 16:49:00,47.3,29.0,30.00,West,270,0.0,5.0,49,0.00,,,0.00,Rainwise IP-100,2013-02-12 21:49:00,
2013-02-12 16:54:00,46.8,29.0,30.00,SSW,202,0.0,4.0,50,0.00,,,0.00,Rainwise IP-100,2013-02-12 21:54:00,
2013-02-12 16:59:00,46.3,29.0,30.00,NW,315,0.0,3.0,51,0.00,,,0.00,Rainwise IP-100,2013-02-12 21:59:00,
2013-02-12 17:04:00,45.9,29.0,29.99,WSW,247,0.0,4.0,50,0.00,,,0.00,Rainwise IP-100,2013-02-12 22:04:00,
2013-02-12 17:09:00,45.9,29.0,29.99,North,360,0.0,3.0,50,0.00,,,0.00,Rainwise IP-100,2013-02-12 22:09:00,
2013-02-12 17:14:00,45.7,29.0,29.99,West,270,2.0,12.0,52,0.00,,,0.00,Rainwise IP-100,2013-02-12 22:14:00,
2013-02-12 17:19:00,44.8,29.0,29.99,NNW,337,0.0,10.0,52,0.00,,,0.00,Rainwise IP-100,2013-02-12 22:19:00,
2013-02-12 17:24:00,44.4,28.0,29.99,SW,225,2.0,4.0,53,0.00,,,0.00,Rainwise IP-100,2013-02-12 22:24:00,
2013-02-12 17:29:00,44.1,29.0,29.99,WSW,247,3.0,6.0,56,0.00,,,0.00,Rainwise IP-100,2013-02-12 22:29:00,
2013-02-12 17:34:00,43.6,31.0,29.99,WSW,247,2.0,6.0,57,0.00,,,0.00,Rainwise IP-100,2013-02-12 22:34:00,
2013-02-12 17:39:00,43.1,29.0,29.99,WSW,247,1.0,6.0,57,0.00,,,0.00,Rainwise IP-100,2013-02-12 22:39:00,
2013-02-12 17:44:00,42.7,29.0,29.99,SW,225,1.0,6.0,58,0.00,,,0.00,Rainwise IP-100,2013-02-12 22:44:00,
2013-02-12 17:49:00,42.3,29.0,29.98,SW,225,0.0,4.0,58,0.00,,,0.00,Rainwise IP-100,2013-02-12 22:49:00,
2013-02-12 17:54:00,41.9,29.0,29.97,WNW,292,1.0,4.0,59,0.00,,,0.00,Rainwise IP-100,2013-02-12 22:54:00,
2013-02-12 17:59:00,41.7,29.0,29.97,WNW,292,0.0,3.0,59,0.00,,,0.00,Rainwise IP-100,2013-02-12 22:59:00,
2013-02-12 18:04:00,41.4,29.0,29.98,WNW,292,0.0,0.0,60,0.00,,,0.00,Rainwise IP-100,2013-02-12 23:04:00,
2013-02-12 18:09:00,40.8,29.0,29.97,WNW,292,0.0,0.0,60,0.00,,,0.00,Rainwise IP-100,2013-02-12 23:09:00,
2013-02-12 18:14:00,40.3,29.0,29.97,NNW,337,0.0,0.0,62,0.00,,,0.00,Rainwise IP-100,2013-02-12 23:14:00,
2013-02-12 18:19:00,39.8,29.0,29.98,SW,225,1.0,3.0,64,0.00,,,0.00,Rainwise IP-100,2013-02-12 23:19:00,
2013-02-12 18:24:00,39.6,29.0,29.98,WSW,247,0.0,4.0,64,0.00,,,0.00,Rainwise IP-100,2013-02-12 23:24:00,
2013-02-12 18:29:00,39.6,29.0,29.98,WSW,247,3.0,5.0,64,0.00,,,0.00,Rainwise IP-100,2013-02-12 23:29:00,
2013-02-12 18:34:00,39.5,29.0,29.98,WSW,247,0.0,4.0,64,0.00,,,0.00,Rainwise IP-100,2013-02-12 23:34:00,
2013-02-12 18:39:00,39.1,29.0,29.98,WSW,247,0.0,1.0,65,0.00,,,0.00,Rainwise IP-100,2013-02-12 23:39:00,
2013-02-12 18:44:00,38.7,29.0,29.97,WSW,247,0.0,1.0,65,0.00,,,0.00,Rainwise IP-100,2013-02-12 23:44:00,
2013-02-12 18:49:00,38.1,28.0,29.98,WSW,247,0.0,0.0,66,0.00,,,0.00,Rainwise IP-100,2013-02-12 23:49:00,
2013-02-12 18:54:00,37.5,28.0,29.97,WSW,247,0.0,3.0,67,0.00,,,0.00,Rainwise IP-100,2013-02-12 23:54:00,
2013-02-12 18:59:00,36.9,28.0,29.97,WSW,247,0.0,0.0,69,0.00,,,0.00,Rainwise IP-100,2013-02-12 23:59:00,
2013-02-12 19:04:00,36.3,28.0,29.97,WSW,247,0.0,0.0,70,0.00,,,0.00,Rainwise IP-100,2013-02-13 00:04:00,
2013-02-12 19:09:00,35.8,28.0,29.97,WSW,247,0.0,0.0,71,0.00,,,0.00,Rainwise IP-100,2013-02-13 00:09:00,
2013-02-12 19:14:00,35.3,28.0,29.97,WSW,247,0.0,0.0,73,0.00,,,0.00,Rainwise IP-100,2013-02-13 00:14:00,
2013-02-12 19:19:00,34.9,28.0,29.96,WSW,247,0.0,0.0,75,0.00,,,0.00,Rainwise IP-100,2013-02-13 00:19:00,
2013-02-12 19:24:00,34.7,28.0,29.97,WSW,247,0.0,1.0,76,0.00,,,0.00,Rainwise IP-100,2013-02-13 00:24:00,
2013-02-12 19:29:00,34.4,28.0,29.97,WSW,247,0.0,0.0,76,0.00,,,0.00,Rainwise IP-100,2013-02-13 00:29:00,
2013-02-12 19:34:00,34.3,28.0,29.97,WSW,247,0.0,0.0,77,0.00,,,0.00,Rainwise IP-100,2013-02-13 00:34:00,
2013-02-12 19:39:00,34.3,28.0,29.97,WSW,247,0.0,2.0,77,0.00,,,0.00,Rainwise IP-100,2013-02-13 00:39:00,
2013-02-12 19:44:00,34.3,29.0,29.97,WSW,247,0.0,1.0,78,0.00,,,0.00,Rainwise IP-100,2013-02-13 00:44:00,
2013-02-12 19:49:00,34.2,29.0,29.97,WSW,247,0.0,0.0,79,0.00,,,0.00,Rainwise IP-100,2013-02-13 00:49:00,
2013-02-12 19:54:00,34.1,31.0,29.97,WSW,247,0.0,3.0,83,0.00,,,0.00,Rainwise IP-100,2013-02-13 00:54:00,
2013-02-12 19:59:00,34.1,31.0,29.97,WSW,247,0.0,1.0,83,0.00,,,0.00,Rainwise IP-100,2013-02-13 00:59:00,
2013-02-12 20:04:00,33.7,29.0,29.97,WSW,247,0.0,0.0,82,0.00,,,0.00,Rainwise IP-100,2013-02-13 01:04:00,
2013-02-12 20:09:00,33.1,29.0,29.97,WSW,247,0.0,1.0,83,0.00,,,0.00,Rainwise IP-100,2013-02-13 01:09:00,
2013-02-12 20:14:00,32.8,29.0,29.97,WSW,247,0.0,1.0,86,0.00,,,0.00,Rainwise IP-100,2013-02-13 01:14:00,
2013-02-12 20:19:00,32.6,31.0,29.96,WSW,247,0.0,0.0,87,0.00,,,0.00,Rainwise IP-100,2013-02-13 01:19:00,
2013-02-12 20:24:00,32.5,31.0,29.97,West,270,0.0,0.0,88,0.00,,,0.00,Rainwise IP-100,2013-02-13 01:24:00,
2013-02-12 20:29:00,32.3,29.0,29.96,West,270,0.0,0.0,90,0.00,,,0.00,Rainwise IP-100,2013-02-13 01:29:00,
2013-02-12 20:34:00,31.9,29.0,29.96,West,270,0.0,0.0,90,0.00,,,0.00,Rainwise IP-100,2013-02-13 01:34:00,
2013-02-12 20:39:00,31.5,29.0,29.96,West,270,0.0,0.0,90,0.00,,,0.00,Rainwise IP-100,2013-02-13 01:39:00,
2013-02-12 20:44:00,31.1,29.0,29.96,West,270,0.0,0.0,92,0.00,,,0.00,Rainwise IP-100,2013-02-13 01:44:00,
2013-02-12 20:49:00,30.8,29.0,29.96,West,270,0.0,0.0,92,0.00,,,0.00,Rainwise IP-100,2013-02-13 01:49:00,
2013-02-12 20:54:00,30.4,29.0,29.95,West,270,0.0,0.0,92,0.00,,,0.00,Rainwise IP-100,2013-02-13 01:54:00,
2013-02-12 20:59:00,30.1,29.0,29.96,West,270,0.0,0.0,93,0.00,,,0.00,Rainwise IP-100,2013-02-13 01:59:00,
2013-02-12 21:04:00,30.0,29.0,29.96,West,270,0.0,0.0,93,0.00,,,0.00,Rainwise IP-100,2013-02-13 02:04:00,
2013-02-12 21:09:00,29.7,29.0,29.96,West,270,0.0,0.0,94,0.00,,,0.00,Rainwise IP-100,2013-02-13 02:09:00,
2013-02-12 21:14:00,29.3,28.0,29.96,West,270,0.0,0.0,95,0.00,,,0.00,Rainwise IP-100,2013-02-13 02:14:00,
2013-02-12 21:19:00,29.2,29.0,29.95,NNE,22,0.0,0.0,97,0.00,,,0.00,Rainwise IP-100,2013-02-13 02:19:00,
2013-02-12 21:24:00,29.5,29.0,29.95,NNE,22,0.0,0.0,97,0.00,,,0.00,Rainwise IP-100,2013-02-13 02:24:00,
2013-02-12 21:29:00,29.7,31.0,29.95,NNE,22,0.0,0.0,98,0.00,,,0.00,Rainwise IP-100,2013-02-13 02:29:00,
2013-02-12 21:34:00,29.8,31.0,29.95,NNE,22,0.0,0.0,98,0.00,,,0.00,Rainwise IP-100,2013-02-13 02:34:00,
2013-02-12 21:39:00,29.9,31.0,29.96,NNE,22,0.0,0.0,98,0.00,,,0.00,Rainwise IP-100,2013-02-13 02:39:00,
2013-02-12 21:44:00,30.2,31.0,29.95,NNE,22,0.0,0.0,99,0.00,,,0.00,Rainwise IP-100,2013-02-13 02:44:00,
2013-02-12 21:49:00,30.7,31.0,29.95,North,360,0.0,2.0,99,0.00,,,0.00,Rainwise IP-100,2013-02-13 02:49:00,
2013-02-12 21:54:00,31.1,31.0,29.95,North,360,0.0,4.0,98,0.00,,,0.00,Rainwise IP-100,2013-02-13 02:54:00,
2013-02-12 21:59:00,31.3,31.0,29.95,North,360,0.0,3.0,99,0.00,,,0.00,Rainwise IP-100,2013-02-13 02:59:00,
2013-02-12 22:04:00,31.4,31.0,29.95,North,360,0.0,0.0,98,0.00,,,0.00,Rainwise IP-100,2013-02-13 03:04:00,
2013-02-12 22:09:00,31.2,29.0,29.94,North,360,0.0,0.0,97,0.00,,,0.00,Rainwise IP-100,2013-02-13 03:09:00,
2013-02-12 22:14:00,30.9,29.0,29.94,North,360,0.0,0.0,96,0.00,,,0.00,Rainwise IP-100,2013-02-13 03:14:00,
2013-02-12 22:19:00,30.8,29.0,29.95,North,360,0.0,0.0,96,0.00,,,0.00,Rainwise IP-100,2013-02-13 03:19:00,
2013-02-12 22:24:00,30.7,29.0,29.94,NNE,22,3.0,0.0,97,0.00,,,0.00,Rainwise IP-100,2013-02-13 03:24:00,
2013-02-12 22:29:00,31.1,31.0,29.95,North,360,3.0,5.0,99,0.00,,,0.00,Rainwise IP-100,2013-02-13 03:29:00,
2013-02-12 22:34:00,31.3,31.0,29.94,NNW,337,0.0,4.0,99,0.00,,,0.00,Rainwise IP-100,2013-02-13 03:34:00,
2013-02-12 22:39:00,31.2,31.0,29.94,NE,45,0.0,5.0,99,0.00,,,0.00,Rainwise IP-100,2013-02-13 03:39:00,
2013-02-12 22:44:00,30.9,31.0,29.95,NE,45,0.0,0.0,98,0.00,,,0.00,Rainwise IP-100,2013-02-13 03:44:00,
2013-02-12 22:49:00,30.9,31.0,29.94,North,360,2.0,7.0,98,0.00,,,0.00,Rainwise IP-100,2013-02-13 03:49:00,
2013-02-12 22:54:00,30.8,31.0,29.94,NNE,22,1.0,6.0,98,0.00,,,0.00,Rainwise IP-100,2013-02-13 03:54:00,
2013-02-12 22:59:00,30.6,31.0,29.95,NNE,22,0.0,3.0,98,0.00,,,0.00,Rainwise IP-100,2013-02-13 03:59:00,
2013-02-12 23:04:00,30.1,31.0,29.95,North,360,1.0,2.0,99,0.00,,,0.00,Rainwise IP-100,2013-02-13 04:04:00,
2013-02-12 23:09:00,29.8,31.0,29.94,North,360,1.0,7.0,100,0.00,,,0.00,Rainwise IP-100,2013-02-13 04:09:00,
2013-02-12 23:14:00,29.5,31.0,29.95,North,360,0.0,5.0,100,0.00,,,0.00,Rainwise IP-100,2013-02-13 04:14:00,
2013-02-12 23:19:00,29.2,29.0,29.94,NNW,337,0.0,5.0,100,0.00,,,0.00,Rainwise IP-100,2013-02-13 04:19:00,
2013-02-12 23:24:00,28.9,29.0,29.94,NNW,337,0.0,0.0,100,0.00,,,0.00,Rainwise IP-100,2013-02-13 04:24:00,
2013-02-12 23:29:00,28.7,29.0,29.94,NNW,337,0.0,3.0,100,0.00,,,0.00,Rainwise IP-100,2013-02-13 04:29:00,
2013-02-12 23:34:00,28.3,28.0,29.95,NNW,337,0.0,0.0,100,0.00,,,0.00,Rainwise IP-100,2013-02-13 04:34:00,
2013-02-12 23:39:00,27.9,28.0,29.94,NNW,337,0.0,0.0,100,0.00,,,0.00,Rainwise IP-100,2013-02-13 04:39:00,
2013-02-12 23:44:00,27.8,28.0,29.94,NNW,337,0.0,0.0,100,0.00,,,0.00,Rainwise IP-100,2013-02-13 04:44:00,
2013-02-12 23:49:00,27.8,28.0,29.93,NNW,337,0.0,0.0,100,0.00,,,0.00,Rainwise IP-100,2013-02-13 04:49:00,
2013-02-12 23:54:00,27.8,28.0,29.93,North,360,0.0,0.0,100,0.00,,,0.00,Rainwise IP-100,2013-02-13 04:54:00,
2013-02-12 23:59:00,27.9,28.0,29.93,North,360,0.0,0.0,100,0.00,,,0.00,Rainwise IP-100,2013-02-13 04:59:00,